千帆星座-95(QIANFAN-95)

导读

QIANFAN-95是中国于2025年10月17日发射的低轨通信卫星,隶属于我国首个正式组网的巨型低轨商业卫星星座——“千帆”星座。该星座计划构建万星规模的全球卫星互联网,为交通、能源等领域提供低延时高速宽带服务,QIANFAN-95的成功入轨,进一步推动了星座区域组网覆盖进程,助力我国商业航天与卫星互联网建设发展。

基本信息
目录编号:
66037
目录名称:
QIANFAN-95
国际标识:
2025-233E
轨道中心:
EARTH
卫星名称:
千帆星座-95
卫星全名:
千帆星座-95(QIANFAN-95)
卫星状态:
在轨 (已飞行238 天)
发射日期:
2025-10-17 UTC
国别 :
中国 (CN)
星等 :
--
轨道信息
数据来源 国际轨道数据 AOE轨道数据
星历时间 2026-06-12T12:24:07+0800
15小时前
查看轨道信息
2026-06-11T21:00:00+0800
1天前
查看轨道信息
半长轴 7446.675km 7446.679km
偏心率 0.0001788 0.0001593
轨道倾角 89.001° 89.000°
近地点辐角 78.995° 86.428°
升交点赤经 43.167° 43.233°
平近点角 281.140° 34.333°
近地点 1067.206km 1067.355km
远地点 1069.87km 1069.729km
周期 106.587分钟 106.587分钟
每日圈数 13.510119 13.51011
详细信息
卫星平台:
95
覆盖范围:
全球
运营商:
上海垣信卫星科技有限公司
运营商所在国:
中国
使用方式:
暂无
卫星简介
千帆星座,也被称为“G60星链”计划,是中国版“星链”的重要组成部分,旨在打造一个由1.4万多颗低轨宽频多媒体卫星构成的庞大星座。千帆星座计划由上海垣信卫星科技有限公司负责实施,于2023年启动建设。该项目是我国第二个低轨卫星大星座,旨在通过构建庞大的卫星网络,为全球用户提供高质量的通信和宽带互联网服务。
2D轨道图
3D轨道图
轨道高度分析图
轨道倾角分析图
轨道综合分析图
查看轨道综合分析图